EW1134 Weather Reports


Display with metric or nautical units.
time (UTC)temp
F
wind
direction
speed
MPH
gust
MPH
rain 1hr
in
rain 24hr
in
rain mn
in
humidity
%
barometer
mb
20260906084004 92 35 2.0 8.0 0.00 0.00 0.00 28 1017.7
20260906083504 91 349 2.0 7.0 0.00 0.00 0.00 30 1017.9
20260906083006 91 347 2.0 7.0 0.00 0.00 0.00 29 1017.7
20260906082504 91 12 2.0 7.0 0.00 0.00 0.00 30 1017.9
20260906082004 91 356 2.0 7.0 0.00 0.00 0.00 28 1017.6
20260906081505 90 293 1.0 6.0 0.00 0.00 0.00 27 1017.9
20260906081004 90 267 2.0 7.0 0.00 0.00 0.00 28 1017.8
20260906075504 88 212 2.0 6.0 0.00 0.00 0.00 29 1017.8
20260906075004 88 193 1.0 6.0 0.00 0.00 0.00 28 1017.9
20260906074504 87 171 1.0 4.0 0.00 0.00 0.00 29 1017.9
20260906074004 87 179 1.0 4.0 0.00 0.00 0.00 29 1017.9
20260906073504 87 185 1.0 4.0 0.00 0.00 0.00 29 1017.7
20260906071504 85 160 1.0 4.0 0.00 0.00 0.00 32 1017.7
20260906071004 84 152 1.0 4.0 0.00 0.00 0.00 34 1017.6
20260906070504 83 174 1.0 4.0 0.00 0.00 0.00 35 1017.5
20260906070005 82 195 1.0 4.0 0.00 0.00 0.00 36 1017.6
20260906065504 82 206 2.0 4.0 0.00 0.00 0.00 36 1017.4
20260906065004 81 201 2.0 4.0 0.00 0.00 0.00 36 1017.4
20260906064504 80 204 2.0 4.0 0.00 0.00 0.00 37 1017.5
20260906063504 79 227 2.0 4.0 0.00 0.00 0.00 38 1017.6
20260906063005 78 214 2.0 4.0 0.00 0.00 0.00 39 1017.6
20260906062504 78 218 2.0 4.0 0.00 0.00 0.00 39 1017.5
20260906062004 78 213 2.0 4.0 0.00 0.00 0.00 39 1017.4
20260906061504 78 204 1.0 4.0 0.00 0.00 0.00 39 1017.3
20260906061004 77 244 1.0 3.0 0.00 0.00 0.00 40 1017.3
20260906060504 77 254 0.0 4.0 0.00 0.00 0.00 41 1017.2
20260906060004 76 233 1.0 4.0 0.00 0.00 0.00 42 1017.1
20260906055004 74 264 0.0 4.0 0.00 0.00 0.00 43 1017.2
20260906054504 73 269 1.0 4.0 0.00 0.00 0.00 44 1017.2
20260906054004 72 279 1.0 4.0 0.00 0.00 0.00 45 1017.0
20260906053505 71 288 1.0 4.0 0.00 0.00 0.00 46 1017.1
20260906053005 71 304 1.0 4.0 0.00 0.00 0.00 46 1017.4
20260906052503 70 311 0.0 4.0 0.00 0.00 0.00 47 1017.2
20260906052004 69 263 0.0 3.0 0.00 0.00 0.00 47 1017.2
20260906051505 69 236 1.0 3.0 0.00 0.00 0.00 47 1017.0
20260906051004 68 231 1.0 3.0 0.00 0.00 0.00 48 1017.1
20260906050504 68 211 0.0 3.0 0.00 0.00 0.00 48 1017.3
20260906050004 67 198 0.0 3.0 0.00 0.00 0.00 48 1017.0
20260906045503 67 216 0.0 3.0 0.00 0.00 0.00 49 1016.9
20260906045003 67 261 0.0 3.0 0.00 0.00 0.00 49 1017.1
20260906044504 66 244 0.0 2.0 0.00 0.00 0.00 50 1017.0
20260906043504 66 252 1.0 5.0 0.00 0.00 0.00 49 1016.8
20260906043005 66 262 2.0 5.0 0.00 0.00 0.00 49 1016.9
20260906042504 66 263 1.0 5.0 0.00 0.00 0.00 49 1017.0
20260906042004 66 227 0.0 4.0 0.00 0.00 0.00 50 1017.0
20260906041504 66 221 1.0 4.0 0.00 0.00 0.00 50 1016.9
20260906041004 65 228 1.0 4.0 0.00 0.00 0.00 50 1016.9
20260906040504 65 252 1.0 3.0 0.00 0.00 0.00 50 1016.8
20260906040005 65 251 1.0 3.0 0.00 0.00 0.00 50 1016.8
20260906035503 65 232 1.0 3.0 0.00 0.00 0.00 50 1016.7
20260906035003 65 225 1.0 3.0 0.00 0.00 0.00 50 1016.6
20260906034504 65 225 0.0 2.0 0.00 0.00 0.00 50 1016.7
20260906034004 65 225 0.0 4.0 0.00 0.00 0.00 49 1016.7
20260906033504 65 224 1.0 4.0 0.00 0.00 0.00 50 1016.6
20260906033004 64 229 1.0 4.0 0.00 0.00 0.00 50 1016.4
20260906032504 64 230 2.0 4.0 0.00 0.00 0.00 50 1016.5
20260906032004 64 225 2.0 4.0 0.00 0.00 0.00 50 1016.6
20260906031504 64 213 1.0 4.0 0.00 0.00 0.00 50 1016.5
20260906030504 64 225 1.0 5.0 0.00 0.00 0.00 48 1016.6
20260906030004 65 225 3.0 8.0 0.00 0.00 0.00 48 1016.6
20260906025005 66 218 4.0 7.0 0.00 0.00 0.00 48 1016.4
20260906024504 66 226 2.0 7.0 0.00 0.00 0.00 48 1016.3
20260906024004 66 230 1.0 4.0 0.00 0.00 0.00 49 1016.4
20260906023504 65 239 0.0 3.0 0.00 0.00 0.00 49 1016.2
20260906023004 65 240 0.0 2.0 0.00 0.00 0.00 49 1016.2
20260906022003 65 181 0.0 1.0 0.00 0.00 0.00 48 1016.0
20260906021504 65 225 0.0 4.0 0.00 0.00 0.00 48 1015.9
20260906020503 66 213 1.0 4.0 0.00 0.00 0.00 48 1016.0
20260906020004 66 207 1.0 4.0 0.00 0.00 0.00 48 1015.9
20260906015004 65 201 0.0 4.0 0.00 0.00 0.00 50 1016.2
20260906014004 65 45 0.0 2.0 0.00 0.00 0.00 49 1016.2
20260906013503 66 76 0.0 2.0 0.00 0.00 0.00 48 1016.4
20260906013005 66 87 0.0 2.0 0.00 0.00 0.00 48 1016.3
20260906012504 66 90 0.0 2.0 0.00 0.00 0.00 47 1016.0
20260906012004 67 135 0.0 1.0 0.00 0.00 0.00 46 1016.1
20260906011504 67 96 0.0 3.0 0.00 0.00 0.00 46 1016.1
20260906011004 67 90 0.0 3.0 0.00 0.00 0.00 46 1016.0
20260906010504 68 109 0.0 3.0 0.00 0.00 0.00 46 1016.1
20260906010004 68 122 0.0 3.0 0.00 0.00 0.00 45 1016.2
20260906005504 68 177 1.0 3.0 0.00 0.00 0.00 45 1016.1
20260906005004 68 248 0.0 3.0 0.00 0.00 0.00 45 1016.2
20260906004505 68 256 0.0 3.0 0.00 0.00 0.00 44 1016.2
20260906004004 68 253 0.0 4.0 0.00 0.00 0.00 44 1016.1
20260906003504 68 242 1.0 4.0 0.00 0.00 0.00 44 1016.2
20260906002504 68 236 0.0 3.0 0.00 0.00 0.00 44 1015.9
20260906002004 69 225 0.0 2.0 0.00 0.00 0.00 44 1016.3
20260906001504 69 256 0.0 3.0 0.00 0.00 0.00 43 1016.3
20260906001004 69 227 1.0 4.0 0.00 0.00 0.00 43 1016.3
20260906000005 69 249 0.0 4.0 0.00 0.00 0.00 43 1016.3
20260905235504 69 223 0.0 3.0 0.00 0.00 0.00 43 1016.2
20260905235004 69 246 1.0 4.0 0.00 0.00 0.00 43 1016.4
20260905234504 69 244 1.0 4.0 0.00 0.00 0.00 43 1016.6
20260905234004 69 240 1.0 4.0 0.00 0.00 0.00 43 1016.3
20260905233504 69 259 0.0 4.0 0.00 0.00 0.00 43 1016.3
20260905233005 69 249 0.0 1.0 0.00 0.00 0.00 44 1016.5
20260905232504 69 184 0.0 1.0 0.00 0.00 0.00 44 1016.4
20260905232004 69 181 0.0 1.0 0.00 0.00 0.00 43 1016.4
20260905231504 69 191 0.0 4.0 0.00 0.00 0.00 43 1016.6
20260905231003 69 210 1.0 4.0 0.00 0.00 0.00 43 1016.6
20260905230503 69 261 0.0 3.0 0.00 0.00 0.00 43 1016.6
20260905230004 69 271 0.0 2.0 0.00 0.00 0.00 42 1016.5
20260905225003 69 288 0.0 2.0 0.00 0.00 0.00 42 1016.6
20260905224504 69 314 0.0 3.0 0.00 0.00 0.00 42 1016.8
20260905224003 70 314 0.0 3.0 0.00 0.00 0.00 42 1016.6
20260905223004 70 0 0.0 0.0 0.00 0.00 0.00 42 1016.6
20260905222503 70 314 0.0 1.0 0.00 0.00 0.00 41 1016.7
20260905222004 70 261 0.0 4.0 0.00 0.00 0.00 41 1016.7
20260905221504 70 241 0.0 4.0 0.00 0.00 0.00 41 1016.5
20260905220504 71 147 0.0 3.0 0.00 0.00 0.00 41 1016.6
20260905215004 71 6 0.0 2.0 0.00 0.00 0.00 40 1016.6
20260905214504 71 97 0.0 3.0 0.00 0.00 0.00 40 1016.9
20260905214003 72 96 1.0 3.0 0.00 0.00 0.00 40 1016.8
20260905213004 72 225 1.0 4.0 0.00 0.00 0.00 39 1016.9
20260905212504 72 225 1.0 4.0 0.00 0.00 0.00 39 1016.9
20260905212004 72 241 0.0 3.0 0.00 0.00 0.00 39 1017.0
20260905210503 72 238 0.0 3.0 0.00 0.00 0.00 38 1016.8
20260905210005 73 246 0.0 4.0 0.00 0.00 0.00 38 1016.9
20260905205504 73 246 1.0 4.0 0.00 0.00 0.00 38 1016.8
20260905204004 74 222 0.0 3.0 0.00 0.00 0.00 37 1016.9
20260905203504 74 215 1.0 4.0 0.00 0.00 0.00 37 1016.8
20260905203004 74 261 2.0 5.0 0.00 0.00 0.00 37 1016.8
20260905202504 74 285 2.0 5.0 0.00 0.00 0.00 37 1017.0
20260905201505 74 263 0.0 4.0 0.00 0.00 0.00 37 1016.8
20260905201004 74 270 0.0 4.0 0.00 0.00 0.00 37 1016.9
20260905200504 74 260 1.0 4.0 0.00 0.00 0.00 37 1016.9
20260905200005 74 261 1.0 4.0 0.00 0.00 0.00 36 1016.7
20260905195505 75 263 1.0 4.0 0.00 0.00 0.00 36 1016.8
20260905195004 75 251 1.0 5.0 0.00 0.00 0.00 36 1016.9
20260905194504 75 231 1.0 5.0 0.00 0.00 0.00 36 1016.9
20260905194004 75 235 1.0 4.0 0.00 0.00 0.00 36 1016.8
20260905193504 75 260 1.0 4.0 0.00 0.00 0.00 35 1016.8
20260905193004 76 245 0.0 3.0 0.00 0.00 0.00 35 1016.9
20260905192504 76 224 1.0 4.0 0.00 0.00 0.00 34 1016.9
20260905192004 76 231 1.0 4.0 0.00 0.00 0.00 34 1016.9
20260905191504 76 255 1.0 4.0 0.00 0.00 0.00 34 1016.9
20260905191004 76 252 1.0 5.0 0.00 0.00 0.00 34 1017.0
20260905190503 76 220 1.0 5.0 0.00 0.00 0.00 34 1016.9
20260905185503 77 240 2.0 6.0 0.00 0.00 0.00 34 1016.9
20260905185003 77 237 1.0 6.0 0.00 0.00 0.00 34 1016.8
20260905183504 78 218 2.0 7.0 0.00 0.00 0.00 33 1016.6
20260905183005 78 219 1.0 6.0 0.00 0.00 0.00 33 1016.7
20260905182504 78 224 2.0 6.0 0.00 0.00 0.00 32 1016.4
20260905182004 79 233 1.0 4.0 0.00 0.00 0.00 32 1016.7
20260905181504 79 269 0.0 4.0 0.00 0.00 0.00 32 1016.4
20260905181003 79 314 0.0 1.0 0.00 0.00 0.00 32 1016.4
20260905180004 79 314 0.0 2.0 0.00 0.00 0.00 31 1016.5
20260905175503 80 314 0.0 1.0 0.00 0.00 0.00 31 1016.4
20260905175004 80 0 0.0 0.0 0.00 0.00 0.00 31 1016.4
20260905174505 80 0 0.0 0.0 0.00 0.00 0.00 31 1016.3
20260905174004 81 326 0.0 2.0 0.00 0.00 0.00 30 1016.3
20260905173504 81 320 0.0 2.0 0.00 0.00 0.00 30 1016.2
20260905172504 82 359 0.0 3.0 0.00 0.00 0.00 29 1016.1
20260905172004 82 31 0.0 3.0 0.00 0.00 0.00 29 1016.1
20260905171504 82 30 0.0 3.0 0.00 0.00 0.00 29 1016.0
20260905171004 83 34 0.0 3.0 0.00 0.00 0.00 29 1016.0
20260905170503 83 38 1.0 4.0 0.00 0.00 0.00 29 1015.9
20260905170004 83 40 1.0 4.0 0.00 0.00 0.00 29 1016.0
20260905165504 84 20 1.0 4.0 0.00 0.00 0.00 28 1016.1
20260905165003 84 356 1.0 4.0 0.00 0.00 0.00 28 1016.0
20260905164504 85 354 1.0 4.0 0.00 0.00 0.00 28 1016.0
20260905164003 85 345 1.0 4.0 0.00 0.00 0.00 28 1016.1
20260905163503 85 352 2.0 6.0 0.00 0.00 0.00 28 1016.3
20260905163004 86 351 2.0 7.0 0.00 0.00 0.00 27 1015.9
20260905162504 86 345 3.0 7.0 0.00 0.00 0.00 27 1016.1
20260905161504 86 336 3.0 7.0 0.00 0.00 0.00 26 1016.2
20260905161003 87 345 4.0 8.0 0.00 0.00 0.00 26 1016.2
20260905160004 87 359 4.0 11.0 0.00 0.00 0.00 25 1016.3
20260905155504 87 354 5.0 10.0 0.00 0.00 0.00 24 1016.4
20260905155004 88 341 5.0 12.0 0.00 0.00 0.00 24 1016.2
20260905154504 88 348 5.0 12.0 0.00 0.00 0.00 24 1016.3
20260905154004 88 353 5.0 12.0 0.00 0.00 0.00 23 1016.3
20260905153503 88 349 5.0 11.0 0.00 0.00 0.00 23 1016.3
20260905153004 88 347 6.0 13.0 0.00 0.00 0.00 22 1016.3
20260905152504 88 325 7.0 13.0 0.00 0.00 0.00 22 1016.4
20260905151504 89 323 5.0 13.0 0.00 0.00 0.00 21 1016.1
20260905150503 88 326 6.0 12.0 0.00 0.00 0.00 22 1016.1
20260905150004 88 323 7.0 15.0 0.00 0.00 0.00 22 1016.3
20260905145504 88 341 7.0 15.0 0.00 0.00 0.00 22 1016.1
20260905145004 88 331 7.0 13.0 0.00 0.00 0.00 22 1016.3
20260905144504 89 310 7.0 13.0 0.00 0.00 0.00 22 1016.2
20260905144003 89 323 6.0 13.0 0.00 0.00 0.00 22 1016.4
20260905143503 89 348 6.0 16.0 0.00 0.00 0.00 22 1016.2
20260905143004 89 343 7.0 16.0 0.00 0.00 0.00 22 1016.3
20260905142504 89 333 6.0 15.0 0.00 0.00 0.00 23 1016.1
20260905142004 89 347 6.0 13.0 0.00 0.00 0.00 22 1016.3
20260905141504 89 356 7.0 13.0 0.00 0.00 0.00 23 1016.3
20260905141003 89 358 7.0 13.0 0.00 0.00 0.00 24 1016.2
20260905140503 89 329 6.0 14.0 0.00 0.00 0.00 24 1016.2
20260905140005 88 306 5.0 14.0 0.00 0.00 0.00 24 1016.3
20260905135504 88 343 5.0 19.0 0.00 0.00 0.00 25 1016.3
20260905135003 88 341 6.0 19.0 0.00 0.00 0.00 25 1016.3
20260905134504 88 312 6.0 14.0 0.00 0.00 0.00 25 1016.4
20260905134004 88 315 7.0 14.0 0.00 0.00 0.00 25 1016.3
20260905133503 88 343 6.0 14.0 0.00 0.00 0.00 25 1016.3
20260905133004 88 11 6.0 14.0 0.00 0.00 0.00 25 1016.3
20260905132504 88 9 6.0 15.0 0.00 0.00 0.00 26 1016.3
20260905132003 88 2 7.0 16.0 0.00 0.00 0.00 25 1016.4
20260905131504 88 8 8.0 17.0 0.00 0.00 0.00 25 1016.4
20260905130503 88 338 6.0 15.0 0.00 0.00 0.00 26 1016.2
20260905125503 88 342 4.0 13.0 0.00 0.00 0.00 26 1016.4
20260905125003 88 10 5.0 13.0 0.00 0.00 0.00 27 1016.6
20260905124504 88 30 6.0 17.0 0.00 0.00 0.00 27 1016.7
20260905124003 88 15 6.0 17.0 0.00 0.00 0.00 25 1016.7
20260905123504 88 4 6.0 16.0 0.00 0.00 0.00 26 1016.6
20260905122503 88 328 7.0 22.0 0.00 0.00 0.00 25 1016.8
20260905122004 89 312 7.0 22.0 0.00 0.00 0.00 25 1016.9
20260905121504 89 321 8.0 22.0 0.00 0.00 0.00 24 1017.0
20260905121004 89 326 9.0 16.0 0.00 0.00 0.00 24 1016.8
20260905120503 89 318 10.0 20.0 0.00 0.00 0.00 23 1017.1
20260905120003 90 326 9.0 20.0 0.00 0.00 0.00 22 1016.9
20260905115503 90 331 7.0 15.0 0.00 0.00 0.00 22 1017.2
20260905115004 89 341 8.0 18.0 0.00 0.00 0.00 24 1016.9
20260905114504 89 346 9.0 18.0 0.00 0.00 0.00 23 1017.0
20260905114003 89 341 9.0 18.0 0.00 0.00 0.00 23 1017.1
20260905113503 89 335 9.0 18.0 0.00 0.00 0.00 23 1016.9
20260905112003 89 315 9.0 20.0 0.00 0.00 0.00 26 1016.9
20260905111504 89 301 10.0 20.0 0.00 0.00 0.00 25 1017.0
20260905110504 89 334 8.0 18.0 0.00 0.00 0.00 25 1017.1
20260905105504 89 353 10.0 19.0 0.00 0.00 0.00 26 1016.7
20260905105003 89 15 8.0 18.0 0.00 0.00 0.00 26 1017.1
20260905104505 89 20 8.0 21.0 0.00 0.00 0.00 26 1017.2
20260905104003 89 356 9.0 21.0 0.00 0.00 0.00 26 1017.1
20260905103504 89 334 8.0 18.0 0.00 0.00 0.00 27 1017.1
20260905103004 89 338 7.0 16.0 0.00 0.00 0.00 28 1017.0
20260905102504 88 340 8.0 16.0 0.00 0.00 0.00 28 1017.0
20260905102004 88 334 10.0 18.0 0.00 0.00 0.00 29 1017.2
20260905101503 88 339 10.0 21.0 0.00 0.00 0.00 28 1016.9
20260905101003 88 339 10.0 21.0 0.00 0.00 0.00 28 1017.2
20260905100503 88 341 11.0 20.0 0.00 0.00 0.00 28 1017.2
20260905095503 88 349 10.0 22.0 0.00 0.00 0.00 28 1017.2
20260905095004 88 339 9.0 18.0 0.00 0.00 0.00 30 1017.2
20260905094504 88 339 8.0 18.0 0.00 0.00 0.00 30 1017.2
20260905094004 88 7 8.0 19.0 0.00 0.00 0.00 30 1017.3
20260905093504 87 341 8.0 19.0 0.00 0.00 0.00 31 1017.4
20260905093004 87 332 8.0 16.0 0.00 0.00 0.00 31 1017.3
20260905092503 87 321 8.0 16.0 0.00 0.00 0.00 31 1017.4
20260905092004 87 324 7.0 16.0 0.00 0.00 0.00 31 1017.5
20260905091505 87 333 7.0 16.0 0.00 0.00 0.00 31 1017.2
20260905091004 87 336 7.0 16.0 0.00 0.00 0.00 31 1017.4
20260905090503 87 333 7.0 14.0 0.00 0.00 0.00 31 1017.6
20260905090004 87 311 7.0 16.0 0.00 0.00 0.00 32 1017.6
20260905085504 87 320 7.0 16.0 0.00 0.00 0.00 32 1017.6
20260905085004 87 351 6.0 13.0 0.00 0.00 0.00 33 1017.3
20260905084505 87 350 6.0 14.0 0.00 0.00 0.00 35 1017.4